This demonstration page uses our WeatherBlox Daily Observations layout. Learn more.

Left ArrowRight Arrow

Hourly Observations for March 23, 2015

Temp ( °F °C ) Dew Point ( °F °C ) Humidity (%) Winds ( mph kmh ) Pressure ( in mb ) Visibility ( mi km ) Precip ( " mm )
12:53 am 00:53 Cloudy 52 11.1 50 10 93 93 Calm 30.07 1018 10 16 0.00 0.00
1:24 am 01:24 Cloudy 52 11 50 10 94 94 Calm 30.09 1019 10 16 0.00 0.00
1:53 am 01:53 Mostly Clear with Mist and Fog 50 10 49 9.4 96 96 SE 5 7 30.08 1019 6 10 0.00 0.00
2:53 am 02:53 Mostly Cloudy 52 11.1 49 9.4 89 89 S 8 13 30.08 1019 10 16 0.00 0.00
3:53 am 03:53 Cloudy 52 11.1 49 9.4 89 89 SSW 9 15 30.09 1019 10 16 0.00 0.00
4:53 am 04:53 Cloudy with Light Rain 53 11.7 50 10 89 89 SSW 8 13 30.10 1019 10 16 0.00 0.03
5:53 am 05:53 Mostly Clear 50 10 48 8.9 93 93 Calm 30.13 1020 10 16 0.00 0.03
6:53 am 06:53 Clear 47 8.3 46 7.8 97 97 W 5 7 30.15 1021 10 16 0.00 0.00
7:53 am 07:53 Sunny 49 9.4 47 8.3 93 93 WSW 3 6 30.18 1022 10 16 0.00 0.00
8:53 am 08:53 Sunny 52 11.1 48 8.9 86 86 WSW 3 6 30.20 1023 10 16 0.00 0.00
9:53 am 09:53 Partly Cloudy 55 13 48 9 77 77 Calm 30.21 1023 10 16 0.00 0.00
10:53 am 10:53 Partly Cloudy 57 13.9 44 6.7 62 62 SW 7 11 30.23 1024 10 16 0.00 0.00
11:53 am 11:53 Sunny 59 15 42 5.6 54 54 WSW 6 9 30.22 1024 10 16 0.00 0.00
12:53 pm 12:53 Sunny 62 16.7 40 4.4 44 44 SSE 8 13 30.22 1023 10 16 0.00 0.00
1:53 pm 13:53 Cloudy 63 17.2 41 5 45 45 S 9 15 30.21 1023 10 16 0.00 0.00
2:53 pm 14:53 Cloudy 63 17.2 39 3.9 41 41 S 10 17 30.19 1022 10 16 0.00 0.00
3:53 pm 15:53 Cloudy 64 17.8 36 2.2 35 35 SSW 10 17 30.18 1022 10 16 0.00 0.00
4:53 pm 16:53 Mostly Cloudy 64 17.8 40 4.4 41 41 S 13 20 30.16 1022 10 16 0.00 0.00
5:53 pm 17:53 Cloudy 63 17.2 39 3.9 41 41 S 7 11 30.16 1021 10 16 0.00 0.00
6:53 pm 18:53 Cloudy 62 16.7 41 5 46 46 W 3 6 30.16 1021 10 16 0.00 0.00
7:53 pm 19:53 Cloudy 61 16.1 40 4.4 46 46 SW 5 7 30.16 1021 10 16 0.00 0.00
8:53 pm 20:53 Cloudy 60 15.6 38 3.3 44 44 SW 7 11 30.17 1022 10 16 0.00 0.00
9:53 pm 21:53 Cloudy 59 15 39 3.9 48 48 WSW 5 7 30.18 1022 10 16 0.00 0.00
10:53 pm 22:53 Cloudy 58 14.4 42 5.6 56 56 SE 5 7 30.18 1022 10 16 0.00 0.00
11:53 pm 23:53 Cloudy 56 13.3 43 6.1 62 62 S 6 9 30.18 1022 10 16 0.00 0.00

Powered by AerisWeather